User: anonymous   Login
Location: Unspecified
(0.0000°N, 0.0000°E)
Time: 17:34:37
(UTC+00:00)
Language:

TRITON 1 - Orbit

View from above orbital plane
View from above orbital plane
View from above satellite
View from above satellite

Ground track
Ground track

The orbit data is extracted from the following two-line orbital elements,

1 39428U 13066N   18170.89963951 +.00000300 +00000-0 +56320-4 0  9992
2 39428 097.6527 164.4054 0119522 260.5637 098.2041 14.67119657244581
Epoch (UTC): 19 June 2018 21:35:28
Eccentricity: 0.0119522
inclination: 97.6527°
perigee height: 586 km
apogee height: 754 km
right ascension of ascending node: 164.4054°
argument of perigee: 260.5637°
revolutions per day: 14.67119657
mean anomaly at epoch: 98.2041°
orbit number at epoch: 24458

The dashed part of the orbit path shows where the satellite is in the earth's shadow,  

DLR